Location: Monroe
(41.9160°N, 83.3980°W)
Time: 09:14:17
(UTC-04:00)

ISS - Visible Passes

Search period start: 27 March 2015 00:00
Search period end: 06 April 2015 00:00
Orbit: 396 x 406 km, 51.6° (Epoch: 27 March)

Date Brightness Start Highest point End Pass type
(mag) Time Alt. Az. Time Alt. Az. Time Alt. Az.
27 Mar -0.7 05:03:00 17° NNE 05:03:00 17° NNE 05:05:04 10° NE visible
27 Mar -2.6 06:36:35 10° NW 06:39:47 53° NNE 06:42:56 10° ESE visible
28 Mar -1.7 05:44:31 18° NNW 05:46:20 32° NNE 05:49:18 10° E visible
29 Mar -0.8 04:53:33 21° NE 04:53:33 21° NE 04:55:27 10° ENE visible
29 Mar -3.4 06:26:14 10° WNW 06:29:27 69° SW 06:32:39 10° SE visible
30 Mar -3.0 05:35:22 46° NNW 05:36:03 62° NNE 05:39:15 10° ESE visible
31 Mar -0.4 04:44:47 15° E 04:44:47 15° E 04:45:34 10° E visible
31 Mar -2.4 06:17:25 20° W 06:18:53 29° SW 06:21:43 10° SSE visible
01 Apr -1.7 05:27:07 26° SSE 05:27:07 26° SSE 05:28:42 10° SE visible
02 Apr -1.2 21:08:54 10° S 21:09:49 14° SSE 21:09:49 14° SSE visible
03 Apr -2.5 21:50:23 10° SW 21:52:39 41° SW 21:52:39 41° SW visible
04 Apr -2.8 20:57:06 10° SSW 21:00:09 37° SE 21:02:27 15° ENE visible
04 Apr -0.8 22:33:36 10° W 22:35:06 21° WNW 22:35:06 21° WNW visible
05 Apr -2.5 21:39:40 10° WSW 21:42:52 51° NNW 21:44:32 24° NE visible
